| time (UTC) | temp C | wind direction | speed KPH | gust KPH | rain 1hr cm | rain 24hr cm | rain mn cm | humidity % | barometer mb |
| 20260505111029 | 23 | 25 | 1.6 | 6.4 | 0.00 | 0.03 | 0.00 | 48 | 1006.7 |
| 20260505102027 | 23 | 74 | 3.2 | 9.7 | 0.00 | 0.03 | 0.00 | 49 | 1007.1 |
| 20260505101031 | 23 | 41 | 3.2 | 6.4 | 0.00 | 0.03 | 0.00 | 51 | 1007.3 |
| 20260505100017 | 22 | 43 | 3.2 | 9.7 | 0.00 | 0.03 | 0.00 | 53 | 1007.3 |
| 20260505095020 | 23 | 81 | 1.6 | 6.4 | 0.00 | 0.03 | 0.00 | 51 | 1007.5 |
| 20260505094022 | 23 | 110 | 1.6 | 6.4 | 0.00 | 0.03 | 0.00 | 51 | 1007.6 |
| 20260505093027 | 23 | 92 | 1.6 | 3.2 | 0.00 | 0.03 | 0.00 | 52 | 1007.7 |
| 20260505092029 | 22 | 71 | 1.6 | 4.8 | 0.00 | 0.03 | 0.00 | 55 | 1007.8 |
| 20260505091031 | 22 | 150 | 1.6 | 6.4 | 0.00 | 0.03 | 0.00 | 55 | 1007.9 |
| 20260505090018 | 22 | 136 | 3.2 | 6.4 | 0.00 | 0.03 | 0.00 | 56 | 1008.0 |
| 20260505085021 | 21 | 54 | 3.2 | 6.4 | 0.00 | 0.03 | 0.00 | 58 | 1008.1 |
| 20260505084024 | 20 | 49 | 3.2 | 6.4 | 0.00 | 0.03 | 0.00 | 60 | 1008.1 |
| 20260505083027 | 20 | 65 | 1.6 | 6.4 | 0.00 | 0.03 | 0.00 | 58 | 1008.1 |
| 20260505082031 | 20 | 72 | 1.6 | 6.4 | 0.00 | 0.03 | 0.00 | 58 | 1008.2 |
| 20260505081017 | 20 | 70 | 1.6 | 6.4 | 0.00 | 0.03 | 0.00 | 58 | 1008.2 |
| 20260505080020 | 20 | 77 | 1.6 | 4.8 | 0.00 | 0.03 | 0.00 | 60 | 1008.4 |
| 20260505075023 | 19 | 75 | 1.6 | 4.8 | 0.00 | 0.03 | 0.00 | 61 | 1008.5 |
| 20260505074026 | 19 | 69 | 1.6 | 6.4 | 0.00 | 0.03 | 0.00 | 59 | 1008.5 |
| 20260505073030 | 18 | 70 | 1.6 | 4.8 | 0.00 | 0.03 | 0.00 | 61 | 1008.4 |
| 20260505072032 | 18 | 66 | 1.6 | 4.8 | 0.00 | 0.03 | 0.00 | 63 | 1008.5 |
| 20260505071018 | 18 | 2 | 1.6 | 4.8 | 0.00 | 0.03 | 0.00 | 65 | 1008.7 |
| 20260505070022 | 18 | 13 | 0.0 | 1.6 | 0.00 | 0.03 | 0.00 | 63 | 1008.7 |
| 20260505065025 | 17 | 73 | 0.0 | 3.2 | 0.00 | 0.03 | 0.00 | 70 | 1008.6 |
| 20260505064027 | 16 | 87 | 1.6 | 3.2 | 0.00 | 0.03 | 0.00 | 75 | 1008.6 |
| 20260505063030 | 16 | 0.0 | 0.0 | 0.00 | 0.03 | 0.00 | 76 | 1008.8 | |
| 20260505062017 | 17 | 0.0 | 0.0 | 0.00 | 0.03 | 0.00 | 75 | 1008.8 | |
| 20260505061020 | 16 | 0.0 | 0.0 | 0.00 | 0.03 | 0.00 | 76 | 1008.9 | |
| 20260505060023 | 15 | 0.0 | 0.0 | 0.00 | 0.03 | 0.00 | 81 | 1008.9 | |
| 20260505055027 | 16 | 0.0 | 0.0 | 0.00 | 0.03 | 0.00 | 79 | 1008.9 | |
| 20260505054029 | 15 | 0.0 | 0.0 | 0.00 | 0.03 | 0.00 | 81 | 1008.9 | |
| 20260505053017 | 14 | 0.0 | 0.0 | 0.00 | 0.03 | 0.00 | 84 | 1008.9 | |
| 20260505052019 | 13 | 104 | 0.0 | 3.2 | 0.00 | 0.03 | 0.00 | 86 | 1008.9 |
| 20260505051021 | 13 | 0.0 | 0.0 | 0.00 | 0.03 | 0.00 | 87 | 1009.0 | |
| 20260505041023 | 11 | 0.0 | 0.0 | 0.00 | 0.03 | 0.00 | 93 | 1009.0 | |
| 20260505040026 | 11 | 107 | 1.6 | 3.2 | 0.00 | 0.03 | 0.00 | 93 | 1009.0 |
| 20260505035029 | 11 | 0.0 | 0.0 | 0.00 | 0.03 | 0.00 | 93 | 1009.1 | |
| 20260505034016 | 11 | 0.0 | 0.0 | 0.00 | 0.03 | 0.00 | 92 | 1009.0 | |
| 20260505033020 | 12 | 104 | 1.6 | 3.2 | 0.00 | 0.03 | 0.00 | 92 | 1009.1 |
| 20260505032022 | 12 | 0.0 | 0.0 | 0.00 | 0.03 | 0.00 | 90 | 1009.1 | |
| 20260505031024 | 12 | 104 | 1.6 | 3.2 | 0.00 | 0.03 | 0.00 | 88 | 1009.1 |
| 20260505030028 | 12 | 0.0 | 0.0 | 0.00 | 0.03 | 0.00 | 86 | 1009.3 | |
| 20260505025031 | 12 | 0.0 | 0.0 | 0.00 | 0.03 | 0.00 | 86 | 1009.3 | |
| 20260505024017 | 12 | 0.0 | 0.0 | 0.00 | 0.03 | 0.00 | 85 | 1009.4 | |
| 20260505023021 | 12 | 106 | 0.0 | 1.6 | 0.00 | 0.03 | 0.00 | 85 | 1009.3 |
| 20260505022024 | 12 | 107 | 0.0 | 1.6 | 0.00 | 0.03 | 0.00 | 84 | 1009.4 |
| 20260505021026 | 13 | 100 | 1.6 | 3.2 | 0.00 | 0.03 | 0.00 | 85 | 1009.4 |
| 20260505020030 | 13 | 104 | 1.6 | 3.2 | 0.00 | 0.03 | 0.00 | 83 | 1009.5 |
| 20260505015018 | 13 | 0.0 | 0.0 | 0.00 | 0.03 | 0.00 | 83 | 1009.4 | |
| 20260505014020 | 13 | 0.0 | 0.0 | 0.00 | 0.03 | 0.00 | 82 | 1009.5 | |
| 20260505013023 | 13 | 0.0 | 0.0 | 0.00 | 0.03 | 0.00 | 81 | 1009.4 | |
| 20260505012025 | 13 | 116 | 1.6 | 3.2 | 0.00 | 0.03 | 0.00 | 81 | 1009.5 |
| 20260505011028 | 13 | 0.0 | 0.0 | 0.00 | 0.03 | 0.00 | 81 | 1009.6 | |
| 20260505010031 | 14 | 0.0 | 0.0 | 0.00 | 0.03 | 0.00 | 80 | 1009.7 | |
| 20260505005018 | 14 | 103 | 0.0 | 3.2 | 0.00 | 0.03 | 0.00 | 81 | 1009.8 |
| 20260505004022 | 14 | 95 | 3.2 | 4.8 | 0.00 | 0.03 | 0.00 | 79 | 1009.9 |
| 20260505003025 | 15 | 74 | 1.6 | 4.8 | 0.00 | 0.03 | 0.00 | 77 | 1010.0 |
| 20260505002027 | 15 | 133 | 3.2 | 4.8 | 0.00 | 0.03 | 0.00 | 75 | 1010.0 |
| 20260505001030 | 16 | 180 | 3.2 | 6.4 | 0.00 | 0.03 | 0.00 | 71 | 1010.1 |
| 20260505000017 | 15 | 128 | 1.6 | 4.8 | 0.00 | 0.03 | 0.00 | 74 | 1010.2 |
| 20260504235020 | 15 | 168 | 4.8 | 6.4 | 0.00 | 0.03 | 0.00 | 74 | 1010.2 |
| 20260504234023 | 15 | 138 | 3.2 | 4.8 | 0.00 | 0.03 | 0.00 | 75 | 1010.1 |
| 20260504233026 | 15 | 162 | 0.0 | 4.8 | 0.00 | 0.03 | 0.00 | 76 | 1010.1 |
| 20260504232029 | 15 | 83 | 0.0 | 1.6 | 0.00 | 0.03 | 0.00 | 73 | 1010.0 |
| 20260504231017 | 15 | 151 | 3.2 | 6.4 | 0.00 | 0.03 | 0.00 | 74 | 1009.8 |
| 20260504230018 | 15 | 120 | 3.2 | 3.2 | 0.00 | 0.03 | 0.00 | 72 | 1009.8 |
| 20260504225022 | 16 | 0.0 | 0.0 | 0.00 | 0.03 | 0.00 | 72 | 1009.9 | |
| 20260504224024 | 16 | 0.0 | 0.0 | 0.00 | 0.03 | 0.00 | 71 | 1009.9 | |
| 20260504223027 | 16 | 117 | 1.6 | 1.6 | 0.00 | 0.03 | 0.00 | 67 | 1009.9 |
| 20260504222030 | 17 | 125 | 0.0 | 3.2 | 0.00 | 0.03 | 0.00 | 67 | 1009.8 |
| 20260504221016 | 17 | 127 | 1.6 | 3.2 | 0.00 | 0.03 | 0.00 | 67 | 1009.9 |
| 20260504220019 | 17 | 157 | 1.6 | 4.8 | 0.00 | 0.03 | 0.03 | 65 | 1010.0 |
| 20260504215022 | 17 | 137 | 1.6 | 4.8 | 0.00 | 0.03 | 0.03 | 65 | 1010.0 |
| 20260504214025 | 17 | 101 | 0.0 | 1.6 | 0.00 | 0.03 | 0.03 | 63 | 1010.1 |
| 20260504213029 | 18 | 100 | 3.2 | 11.3 | 0.00 | 0.03 | 0.03 | 62 | 1010.2 |
| 20260504212030 | 17 | 81 | 1.6 | 6.4 | 0.00 | 0.03 | 0.03 | 63 | 1010.4 |
| 20260504211017 | 17 | 99 | 0.0 | 1.6 | 0.00 | 0.03 | 0.03 | 67 | 1010.5 |
| 20260504210019 | 17 | 99 | 1.6 | 3.2 | 0.03 | 0.03 | 0.03 | 63 | 1010.6 |
| 20260504205023 | 18 | 103 | 0.0 | 3.2 | 0.03 | 0.03 | 0.03 | 57 | 1010.7 |
| 20260504204025 | 19 | 127 | 4.8 | 6.4 | 0.03 | 0.03 | 0.03 | 55 | 1010.9 |
| 20260504203027 | 19 | 156 | 9.7 | 17.7 | 0.03 | 0.03 | 0.03 | 56 | 1010.8 |
| 20260504202030 | 18 | 132 | 3.2 | 4.8 | 0.03 | 0.03 | 0.03 | 58 | 1010.7 |
| 20260504201032 | 18 | 100 | 0.0 | 1.6 | 0.03 | 0.03 | 0.03 | 63 | 1010.5 |
| 20260504200018 | 18 | 116 | 0.0 | 1.6 | 0.00 | 0.00 | 0.00 | 57 | 1010.4 |
| 20260504195020 | 20 | 88 | 4.8 | 11.3 | 0.00 | 0.00 | 0.00 | 48 | 1010.4 |
| 20260504194022 | 20 | 109 | 4.8 | 9.7 | 0.00 | 0.00 | 0.00 | 48 | 1010.3 |
| 20260504193024 | 20 | 104 | 8.0 | 20.9 | 0.00 | 0.00 | 0.00 | 46 | 1010.3 |
| 20260504192027 | 20 | 117 | 1.6 | 6.4 | 0.00 | 0.00 | 0.00 | 50 | 1010.8 |
| 20260504191030 | 20 | 242 | 0.0 | 4.8 | 0.00 | 0.00 | 0.00 | 50 | 1010.9 |
| 20260504190017 | 20 | 179 | 4.8 | 11.3 | 0.00 | 0.00 | 0.00 | 46 | 1010.6 |
| 20260504185020 | 21 | 296 | 4.8 | 9.7 | 0.00 | 0.00 | 0.00 | 47 | 1010.4 |
| 20260504184023 | 21 | 270 | 12.9 | 25.7 | 0.00 | 0.00 | 0.00 | 50 | 1010.6 |
| 20260504183025 | 22 | 271 | 11.3 | 25.7 | 0.00 | 0.00 | 0.00 | 46 | 1010.5 |
| 20260504182029 | 22 | 273 | 8.0 | 17.7 | 0.00 | 0.00 | 0.00 | 44 | 1010.2 |
| 20260504181017 | 22 | 257 | 4.8 | 11.3 | 0.00 | 0.00 | 0.00 | 44 | 1009.9 |
| 20260504180018 | 22 | 0.0 | 0.0 | 0.00 | 0.00 | 0.00 | 43 | 1009.8 | |
| 20260504175020 | 23 | 0.0 | 0.0 | 0.00 | 0.00 | 0.00 | 41 | 1009.6 | |
| 20260504174023 | 23 | 0.0 | 0.0 | 0.00 | 0.00 | 0.00 | 39 | 1009.6 | |
| 20260504173026 | 23 | 0.0 | 0.0 | 0.00 | 0.00 | 0.00 | 38 | 1009.6 | |
| 20260504172029 | 23 | 127 | 0.0 | 1.6 | 0.00 | 0.00 | 0.00 | 39 | 1009.6 |
| 20260504171015 | 25 | 102 | 0.0 | 1.6 | 0.00 | 0.00 | 0.00 | 39 | 1009.6 |
| 20260504151017 | 26 | 71 | 1.6 | 6.4 | 0.00 | 0.00 | 0.00 | 34 | 1010.3 |
| 20260504141019 | 27 | 104 | 0.0 | 1.6 | 0.00 | 0.00 | 0.00 | 32 | 1010.9 |